Weather History for Fergus Falls, MN

Change the Weather History Date:

Wednesday, May 22, 2013

  Actual Average Record
Temperature  
Mean Temperature 56 °F -  
Max Temperature 66 °F 71 °F 93 °F (1964)
Min Temperature 46 °F 48 °F 28 °F (1963)
Degree Days  
Heating Degree Days 9    
Growing Degree Days 6 (Base 50)    
Moisture  
Dew Point 47 °F    
Average Humidity 81    
Maximum Humidity 100    
Minimum Humidity 49    
Precipitation  
Precipitation 0.11 in - - ()
Sea Level Pressure  
Sea Level Pressure 29.90 in    
Wind  
Wind Speed 9 mph (NE)    
Max Wind Speed 21 mph    
Max Gust Speed 29 mph    
Visibility 10 miles    
Events Rain    
Averages and records for this station are not official NWS values.
T = Trace of Precipitation, MM = Missing Value Source: NWS Daily Summary

Daily Weather History Graph

Daily Weather History Graph

Search for Another Location

Airport:

Trip Planner

Search our weather history database for the weather conditions in past years. The results will help you decide how hot, cold, wet, or windy it might be!

Date:

Astronomy

May. 22, 2013 Rise Set
Actual Time 5:43 AM CDT 8:59 PM CDT
Civil Twilight 5:07 AM CDT 9:36 PM CDT
Nautical Twilight 4:19 AM CDT 10:23 PM CDT
Astronomical Twilight 3:20 AM CDT 11:23 PM CDT
Moon 6:15 PM CDT (5/22) 3:58 AM CDT (5/22)
Length of Visible Light 16h 28m
Length of Day
15h 15m
Waxing Gibbous, 91% of the Moon is Illuminated
May 22
Waxing Gibbous
May 24
Full
May 31
Last Quarter
Jun 8
New
Jun 16
First Quarter

Hourly Weather History & Observations

Time (CDT) Temp. Windchill Dew Point Humidity Pressure Visibility Wind Dir Wind Speed Gust Speed Precip Events Conditions
12:13 AM 46.4 °F 41.9 °F 44.6 °F 93% 29.83 in 4.0 mi ENE 9.2 mph 16.1 mph N/A   Overcast
12:33 AM 46.4 °F 41.5 °F 44.6 °F 93% 29.83 in 10.0 mi ENE 10.4 mph 17.3 mph N/A   Overcast
12:53 AM 46.4 °F 41.5 °F 44.6 °F 93% 29.83 in 10.0 mi ENE 10.4 mph - N/A   Overcast
1:12 AM 46.4 °F 41.9 °F 44.6 °F 93% 29.82 in 10.0 mi ENE 9.2 mph - N/A   Light Drizzle
1:33 AM 46.4 °F 42.4 °F 44.6 °F 93% 29.82 in 10.0 mi NE 8.1 mph - N/A   Light Drizzle
1:53 AM 46.4 °F 41.5 °F 44.6 °F 93% 29.82 in 10.0 mi NE 10.4 mph - N/A   Overcast
2:12 AM 46.4 °F 41.9 °F 42.8 °F 87% 29.82 in 10.0 mi ENE 9.2 mph 17.3 mph N/A   Overcast
2:33 AM 46.4 °F 41.9 °F 42.8 °F 87% 29.82 in 10.0 mi NE 9.2 mph - N/A   Overcast
2:53 AM 46.4 °F 41.9 °F 42.8 °F 87% 29.82 in 10.0 mi NE 9.2 mph - N/A   Overcast
3:13 AM 46.4 °F 43.5 °F 44.6 °F 93% 29.82 in 10.0 mi NE 5.8 mph - N/A   Overcast
3:33 AM 46.4 °F 42.4 °F 42.8 °F 87% 29.83 in 10.0 mi NE 8.1 mph - N/A   Overcast
3:53 AM 46.4 °F 41.9 °F 44.6 °F 93% 29.83 in 10.0 mi NE 9.2 mph - N/A   Overcast
4:13 AM 46.4 °F 41.9 °F 44.6 °F 93% 29.83 in 10.0 mi NE 9.2 mph - N/A   Overcast
4:33 AM 46.4 °F 41.9 °F 44.6 °F 93% 29.83 in 10.0 mi NNE 9.2 mph - N/A   Overcast
4:53 AM 46.4 °F 42.9 °F 44.6 °F 93% 29.83 in 10.0 mi NNE 6.9 mph - N/A   Overcast
5:13 AM 46.4 °F 41.9 °F 44.6 °F 93% 29.83 in 10.0 mi NNE 9.2 mph - N/A   Overcast
5:33 AM 46.4 °F 42.4 °F 44.6 °F 93% 29.83 in 10.0 mi NNE 8.1 mph - N/A   Overcast
5:53 AM 46.4 °F 41.5 °F 44.6 °F 93% 29.84 in 10.0 mi NE 10.4 mph - N/A   Overcast
6:13 AM 46.4 °F 42.9 °F 44.6 °F 93% 29.83 in 10.0 mi NE 6.9 mph - N/A Rain Light Rain
6:33 AM 46.4 °F 41.9 °F 44.6 °F 93% 29.84 in 10.0 mi NE 9.2 mph - N/A   Light Drizzle
6:53 AM 46.4 °F 43.5 °F 44.6 °F 93% 29.84 in 10.0 mi NE 5.8 mph - 0.01 in Rain Light Rain
7:13 AM 46.4 °F 43.5 °F 44.6 °F 93% 29.84 in 10.0 mi NNE 5.8 mph - 0.01 in Rain Rain
7:33 AM 46.4 °F 42.9 °F 44.6 °F 93% 29.84 in 10.0 mi NE 6.9 mph - 0.03 in Rain Light Rain
7:53 AM 46.4 °F 42.4 °F 44.6 °F 93% 29.85 in 10.0 mi NE 8.1 mph - 0.05 in   Drizzle
8:13 AM 46.4 °F 41.9 °F 44.6 °F 93% 29.85 in 10.0 mi NNE 9.2 mph - 0.01 in Rain Light Rain
8:33 AM 46.4 °F 42.4 °F 46.4 °F 100% 29.85 in 10.0 mi NE 8.1 mph - 0.03 in Rain Light Rain
8:53 AM 46.4 °F 42.4 °F 46.4 °F 100% 29.86 in 10.0 mi NE 8.1 mph 16.1 mph 0.03 in Rain Light Rain
9:13 AM 48.2 °F - 46.4 °F 93% 29.86 in 10.0 mi NE 12.7 mph 17.3 mph 0.01 in   Light Drizzle
9:33 AM 48.2 °F - 46.4 °F 93% 29.86 in 10.0 mi NE 11.5 mph 17.3 mph 0.01 in Rain Light Rain
9:53 AM 48.2 °F - 46.4 °F 93% 29.86 in 10.0 mi NE 8.1 mph 16.1 mph 0.01 in   Overcast
10:13 AM 48.2 °F - 46.4 °F 93% 29.87 in 7.0 mi ENE 13.8 mph 20.7 mph N/A   Overcast
10:33 AM 48.2 °F - 46.4 °F 93% 29.87 in 10.0 mi NE 12.7 mph 19.6 mph 0.01 in Rain Light Rain
10:53 AM 48.2 °F - 46.4 °F 93% 29.87 in 10.0 mi NE 12.7 mph 17.3 mph 0.01 in   Overcast
11:13 AM 50.0 °F - 48.2 °F 94% 29.88 in 10.0 mi NE 10.4 mph 17.3 mph N/A Rain Light Rain
11:33 AM 50.0 °F - 46.4 °F 87% 29.89 in 10.0 mi NE 16.1 mph - N/A   Overcast
11:53 AM 50.0 °F - 46.4 °F 87% 29.89 in 10.0 mi ENE 13.8 mph 20.7 mph N/A   Overcast
12:13 PM 51.8 °F - 46.4 °F 82% 29.90 in 10.0 mi NE 11.5 mph 23.0 mph N/A   Overcast
12:33 PM 51.8 °F - 46.4 °F 82% 29.90 in 10.0 mi NE 10.4 mph 17.3 mph N/A   Overcast
12:53 PM 51.8 °F - 46.4 °F 82% 29.91 in 10.0 mi NE 16.1 mph 19.6 mph N/A   Overcast
1:13 PM 51.8 °F - 46.4 °F 82% 29.92 in 10.0 mi ENE 15.0 mph 19.6 mph N/A   Overcast
1:29 PM 51.8 °F - 46.4 °F 82% 29.92 in 10.0 mi ENE 10.4 mph 17.3 mph N/A   Overcast
1:53 PM 53.6 °F - 48.2 °F 82% 29.93 in 10.0 mi ENE 10.4 mph - N/A   Overcast
2:13 PM 53.6 °F - 48.2 °F 82% 29.93 in 10.0 mi ENE 13.8 mph 20.7 mph N/A   Overcast
2:33 PM 55.4 °F - 48.2 °F 77% 29.94 in 10.0 mi ENE 13.8 mph 20.7 mph N/A   Overcast
2:53 PM 55.4 °F - 48.2 °F 77% 29.94 in 10.0 mi ENE 18.4 mph 27.6 mph N/A   Overcast
3:13 PM 57.2 °F - 48.2 °F 72% 29.94 in 10.0 mi ENE 19.6 mph 28.8 mph N/A   Overcast
3:33 PM 59.0 °F - 48.2 °F 67% 29.94 in 10.0 mi East 20.7 mph 26.5 mph N/A   Mostly Cloudy
3:53 PM 59.0 °F - 48.2 °F 67% 29.94 in 10.0 mi ENE 12.7 mph 20.7 mph N/A   Overcast
4:13 PM 60.8 °F - 48.2 °F 63% 29.94 in 10.0 mi East 15.0 mph - N/A   Overcast
4:33 PM 62.6 °F - 48.2 °F 59% 29.94 in 10.0 mi ENE 13.8 mph 18.4 mph N/A   Scattered Clouds
4:53 PM 62.6 °F - 48.2 °F 59% 29.94 in 10.0 mi ENE 13.8 mph 18.4 mph N/A   Clear
5:13 PM 64.4 °F - 48.2 °F 56% 29.94 in 10.0 mi ENE 11.5 mph - N/A   Clear
5:33 PM 64.4 °F - 48.2 °F 56% 29.94 in 10.0 mi ENE 9.2 mph - N/A   Clear
5:53 PM 64.4 °F - 48.2 °F 56% 29.94 in 10.0 mi ENE 4.6 mph - N/A   Clear
6:12 PM 66.2 °F - 48.2 °F 52% 29.94 in 10.0 mi NE 4.6 mph - N/A   Clear
6:33 PM 66.2 °F - 48.2 °F 52% 29.94 in 10.0 mi NNE 3.5 mph - N/A   Clear
6:53 PM 66.2 °F - 48.2 °F 52% 29.95 in 10.0 mi Calm Calm - N/A   Clear
7:13 PM 66.2 °F - 46.4 °F 49% 29.96 in 10.0 mi North 3.5 mph - N/A   Clear
7:33 PM 66.2 °F - 48.2 °F 52% 29.96 in 10.0 mi Calm Calm - N/A   Clear
7:53 PM 64.4 °F - 51.8 °F 64% 29.97 in 10.0 mi NW 3.5 mph - N/A   Clear
8:13 PM 62.6 °F - 53.6 °F 72% 29.97 in 10.0 mi NW 5.8 mph - N/A   Clear
8:33 PM 62.6 °F - 50.0 °F 63% 29.99 in 10.0 mi North 3.5 mph - N/A   Clear
8:53 PM 60.8 °F - 51.8 °F 72% 29.99 in 10.0 mi NNW 3.5 mph - N/A   Clear
9:13 PM 57.2 °F - 50.0 °F 77% 30.00 in 10.0 mi WNW 3.5 mph - N/A   Clear
9:33 PM 57.2 °F - 48.2 °F 72% 30.01 in 10.0 mi Calm Calm - N/A   Clear
9:53 PM 57.2 °F - 48.2 °F 72% 30.02 in 10.0 mi Calm Calm - N/A   Clear
10:13 PM 55.4 °F - 46.4 °F 72% 30.03 in 10.0 mi NW 4.6 mph - N/A   Scattered Clouds
10:33 PM 57.2 °F - 48.2 °F 72% 30.04 in 10.0 mi SSE 4.6 mph - N/A   Overcast
10:53 PM 57.2 °F - 46.4 °F 67% 30.05 in 10.0 mi ESE 6.9 mph - N/A   Mostly Cloudy
11:13 PM 55.4 °F - 50.0 °F 82% 30.06 in 10.0 mi SE 6.9 mph - N/A   Mostly Cloudy
11:33 PM 53.6 °F - 50.0 °F 88% 30.07 in 10.0 mi SSE 8.1 mph - N/A   Mostly Cloudy
11:53 PM 51.8 °F - 50.0 °F 94% 30.08 in 10.0 mi SSE 6.9 mph - N/A   Scattered Clouds